Ann Arbor, MI

4:47 AM EST on November 23, 2017 (GMT -0500)
Ann Arbor Municipal

Weather History for KARB - April, 2012

Change the Weather History Date:

Sunday, April 22, 2012

  Actual Average Record
Temperature  
Mean Temperature 44 °F -  
Max Temperature 53 °F 59 °F 80 °F (2007)
Min Temperature 35 °F 36 °F 30 °F (2013)
Degree Days  
Heating Degree Days 22    
Moisture  
Dew Point 26 °F    
Average Humidity 53    
Maximum Humidity 76    
Minimum Humidity 31    
Precipitation  
Precipitation 0.00 in - - ()
Sea Level Pressure  
Sea Level Pressure 29.99 in    
Wind  
Wind Speed 11 mph (NNE)    
Max Wind Speed 21 mph    
Max Gust Speed 34 mph    
Visibility 10 miles    
Events      
Averages and records for this station are not official NWS values.
T = Trace of Precipitation, MM = Missing Value Source: NWS Daily Summary

Daily Weather History Graph

Daily Weather History Graph

Search for Another Location

Airport or City:

Trip Planner

Search our weather history database for the weather conditions in past years. The results will help you decide how hot, cold, wet, or windy it might be!

Date:

Astronomy

Apr. 22, 2012 Rise Set
Actual Time 6:42 AM EDT 8:24 PM EDT
Civil Twilight 6:12 AM EDT 8:54 PM EDT
Nautical Twilight 5:36 AM EDT 9:30 PM EDT
Astronomical Twilight 4:58 AM EDT 10:09 PM EDT
Moon 7:11 AM EDT (4/22) 10:02 PM EDT (4/22)
Length of Visible Light 14h 41m
Length of Day
13h 42m
New Moon, 2% of the Moon is Illuminated
Apr 22
New Moon
Apr 29
First Quarter
May 5
Full
May 12
Last Quarter
May 20
New

Hourly Weather History & Observations

Time (EDT) Temp. Windchill Dew Point Humidity Pressure Visibility Wind Dir Wind Speed Gust Speed Precip Events Conditions
12:53 AM 37.0 °F 31.6 °F 28.0 °F 70% 30.02 in 10.0 mi NNE 6.9 mph - N/A   Clear
1:53 AM 37.0 °F 31.6 °F 28.0 °F 70% 30.00 in 10.0 mi NNE 6.9 mph - N/A   Clear
2:53 AM 36.0 °F 30.3 °F 28.0 °F 73% 30.01 in 10.0 mi NNE 6.9 mph - N/A   Clear
3:53 AM 36.0 °F 31.1 °F 28.0 °F 73% 30.00 in 10.0 mi North 5.8 mph - N/A   Clear
4:53 AM 35.1 °F 28.6 °F 28.0 °F 76% 30.00 in 10.0 mi NNE 8.1 mph - N/A   Clear
5:53 AM 36.0 °F 28.5 °F 28.9 °F 76% 29.99 in 10.0 mi NNE 10.4 mph - N/A   Mostly Cloudy
6:53 AM 36.0 °F 28.0 °F 28.9 °F 76% 29.99 in 10.0 mi NNE 11.5 mph - N/A   Partly Cloudy
7:53 AM 37.0 °F 29.3 °F 28.9 °F 73% 30.00 in 10.0 mi NNE 11.5 mph - N/A   Clear
8:53 AM 41.0 °F 34.3 °F 30.9 °F 67% 30.01 in 10.0 mi NNE 11.5 mph - N/A   Clear
9:53 AM 42.1 °F 36.1 °F 30.9 °F 65% 30.00 in 10.0 mi NE 10.4 mph 21.9 mph N/A   Scattered Clouds
10:53 AM 44.1 °F 37.4 °F 30.0 °F 58% 30.01 in 10.0 mi NE 13.8 mph 24.2 mph N/A   Overcast
11:53 AM 46.9 °F - 27.0 °F 46% 29.99 in 10.0 mi ENE 13.8 mph 26.5 mph N/A   Mostly Cloudy
12:53 PM 51.1 °F - 21.9 °F 32% 29.98 in 10.0 mi NE 18.4 mph 34.5 mph N/A   Clear
1:53 PM 52.0 °F - 21.9 °F 31% 29.97 in 10.0 mi ENE 17.3 mph 28.8 mph N/A   Clear
2:53 PM 52.0 °F - 23.0 °F 32% 29.97 in 10.0 mi NNE 17.3 mph 29.9 mph N/A   Clear
3:53 PM 52.0 °F - 26.1 °F 37% 29.96 in 10.0 mi ENE 17.3 mph 31.1 mph N/A   Partly Cloudy
4:53 PM 52.0 °F - 24.1 °F 34% 29.95 in 10.0 mi North 17.3 mph 24.2 mph N/A   Mostly Cloudy
5:53 PM 51.1 °F - 21.9 °F 32% 29.96 in 10.0 mi NNE 15.0 mph 29.9 mph N/A   Clear
6:53 PM 48.9 °F - 21.9 °F 35% 29.96 in 10.0 mi NNE 20.7 mph 24.2 mph N/A   Clear
7:53 PM 46.0 °F 38.8 °F 24.1 °F 42% 29.98 in 10.0 mi NNE 18.4 mph 25.3 mph N/A   Mostly Cloudy
8:53 PM 44.1 °F 37.7 °F 23.0 °F 43% 29.99 in 10.0 mi NNE 12.7 mph 21.9 mph N/A   Partly Cloudy
9:53 PM 43.0 °F 37.2 °F 23.0 °F 45% 29.99 in 10.0 mi North 10.4 mph - N/A   Clear
10:53 PM 42.1 °F 35.7 °F 21.9 °F 45% 29.97 in 10.0 mi North 11.5 mph - N/A   Clear
11:53 PM 42.1 °F 34.9 °F 19.9 °F 41% 29.95 in 10.0 mi North 13.8 mph - N/A   Clear